Tracking 17149 objects as of 22-May-2015
HD Live streaming from Space Station

DELTA 2 R/B(2) (PAM-D)


DELTA 2 R/B(2) (PAM-D) is no longer on orbit
DELTA 2 R/B(2) (PAM-D) is classified as:


NORAD ID: 22448
Int'l Code: 1993-007C
Perigee: N/A
Apogee: N/A
Inclination: N/A
Period: N/A
Semi major axis: N/A
RCS: N/A
Launch date: February 3, 1993
Source: United States (US)
Decay date: 2002-09-11

Note: This is a ROCKET BODY
Your satellite tracking list
Your tracking list is empty





NASA's NSSDC Master Catalog

Two Line Element Set (TLE):
1 22448U 93007C   02253.96681179 +.50569139 +96362-6 +10077-2 0  9995
2 22448 034.5698 186.5218 0036246 284.6139 075.0781 16.42748309238175

Source of the keplerian elements: AFSPC

N2YO: 321